Location: Grossmotten
(48.5500°N, 15.3833°E)
Time: 18:08:59
(UTC+00:00)

Lacrosse 5 rocket - Pass Details

Date: 15 November 2019
Orbit: 460 x 637 km, 57.0° (Epoch: 07 December)

Event Time Altitude Azimuth Distance (km) Brightness Sun altitude
Exits shadow 05:21:30 - 313° (NW) 1,774 3.3 -7.6°
Reaches altitude 10° 05:21:54 10° 315° (NW) 1,626 3.2 -7.5°
Maximum altitude 05:25:13 33° 22° (NNE) 794 2.2 -7.0°
Drops below altitude 10° 05:28:31 10° 88° (E) 1,609 5.0 -6.5°
Sets 05:30:48 0° 98° (E) 2,489 6.7 -6.1°
